Location: Bijele Vode
(45.2833°N, 16.2000°E)
Time: 21:05:34
(UTC+00:00)

CZ-2C R/B - Pass Details

Date: 18 September 2020
Orbit: 785 x 870 km, 98.2° (Epoch: 27 October)

Event Time Altitude Azimuth Distance (km) Brightness Sun altitude
Rises 17:36:40 0° 25° (NNE) 3,417 5.7 -7.3°
Reaches altitude 10° 17:39:29 10° 38° (NE) 2,490 4.9 -7.8°
Maximum altitude 17:43:57 25° 93° (E) 1,685 3.7 -8.5°
Drops below altitude 10° 17:48:27 10° 146° (SSE) 2,504 4.7 -9.3°
Sets 17:51:16 0° 160° (SSE) 3,441 5.6 -9.8°
